Date String (YYYY-MM-DD hh:mm:ss) UTC,Instrument flags,Ambient pressure (hPa),Sample flow (lpm),Bypass flow (lpm),Sample temperature (°C),Ambient temperature (°C),ASC tube jacket temperature (°C),LED temperature (°C),Box temperature (°C),Sample RH (%),Span deviation,Mass concentration (μg/m³),Mass concentration (μg/m³),Mass concentration (μg/m³)
DateTimeUTC,F1_M11,P_M11,Q1_M11,Q2_M11,T1_M11,T2_M11,T3_M11,T4_M11,T5_M11,U1_M11,ZSPAN_M11,X0_M11,X2_M11,X1_M11
2022-12-22 15:00:00,,0828.7,5.03,0.00,21.9,19.0,00.0,30.9,22.7,02.2,0002.7,0008.45,0004.60,0003.94
2022-12-22 15:01:00,,0828.7,5.00,0.00,21.6,18.5,00.0,30.8,22.3,02.3,0002.1,0008.46,0004.62,0003.97
2022-12-22 15:02:00,,0828.7,4.97,0.00,21.6,19.5,00.0,30.6,22.6,02.3,0002.2,0008.56,0004.63,0004.00
2022-12-22 15:03:00,,0828.8,4.99,0.00,21.7,20.4,00.0,30.6,22.9,02.3,0002.4,0008.65,0004.66,0004.02
2022-12-22 15:04:00,,0829.0,5.02,0.00,21.7,21.1,00.0,30.5,23.1,02.3,0002.4,0008.66,0004.68,0004.04
2022-12-22 15:05:00,,0828.9,4.96,0.00,21.8,21.6,00.0,30.5,23.3,02.3,0002.6,0008.61,0004.70,0004.07
2022-12-22 15:06:00,,0828.9,5.04,0.00,21.8,22.0,00.0,30.5,23.4,02.3,0002.6,0008.62,0004.76,0004.11
2022-12-22 15:07:00,,0828.9,4.97,0.00,21.9,22.3,00.0,30.5,23.5,02.3,0002.4,0008.53,0004.77,0004.13
2022-12-22 15:08:00,,0828.8,5.01,0.00,21.9,22.0,00.0,30.6,23.4,02.3,0002.5,0008.58,0004.80,0004.16
2022-12-22 15:09:00,,0828.8,4.97,0.00,21.8,20.8,00.0,30.6,23.1,02.3,0002.6,0008.61,0004.82,0004.18
2022-12-22 15:10:00,,0828.9,5.03,0.00,21.6,19.7,00.0,30.6,22.7,02.4,0003.3,0008.45,0004.78,0004.17
2022-12-22 15:11:00,,0828.9,5.01,0.00,21.5,19.9,00.0,30.5,22.7,02.4,0003.8,0008.41,0004.76,0004.16
2022-12-22 15:12:00,,0828.9,4.95,0.00,21.6,20.9,00.0,30.5,23.0,02.4,0003.8,0008.43,0004.77,0004.15
2022-12-22 15:13:00,,0828.9,5.02,0.00,21.7,21.7,00.0,30.4,23.2,02.4,0003.6,0008.38,0004.77,0004.15
2022-12-22 15:14:00,,0829.1,4.97,0.00,21.7,22.2,00.0,30.5,23.4,02.5,0003.2,0008.30,0004.75,0004.15
2022-12-22 15:15:00,,0829.1,5.05,0.00,21.7,21.4,00.0,30.5,23.2,02.5,0002.9,0008.37,0004.78,0004.16
2022-12-22 15:16:00,,0829.1,4.94,0.00,21.6,20.2,00.0,30.5,22.8,02.5,0002.5,0008.88,0004.76,0004.14
2022-12-22 15:17:00,,0829.1,5.04,0.00,21.4,19.8,00.0,30.5,22.6,02.6,0002.3,0008.89,0004.75,0004.14
2022-12-22 15:18:00,,0829.3,5.02,0.00,21.5,20.8,00.0,30.4,22.9,02.5,0002.0,0008.93,0004.75,0004.12
2022-12-22 15:19:00,,0829.2,4.97,0.00,21.6,21.6,00.0,30.4,23.2,02.5,0002.0,0009.55,0004.73,0004.11
2022-12-22 15:20:00,,0829.2,5.02,0.00,21.7,22.3,00.0,30.4,23.4,02.5,0002.1,0009.53,0004.71,0004.11
2022-12-22 15:21:00,,0829.3,4.98,0.00,21.7,22.0,00.0,30.4,23.4,02.5,0001.8,0009.59,0004.74,0004.12
2022-12-22 15:22:00,,0829.3,5.01,0.00,21.7,21.1,00.0,30.5,23.1,02.6,0001.9,0009.71,0004.77,0004.13
2022-12-22 15:23:00,,0829.2,4.96,0.00,21.5,20.1,00.0,30.5,22.8,02.6,0002.0,0009.76,0004.79,0004.15
2022-12-22 15:24:00,,0829.2,5.03,0.00,21.4,20.0,00.0,30.4,22.7,02.6,0001.8,0009.88,0004.81,0004.14
2022-12-22 15:25:00,,0829.2,4.98,0.00,21.5,21.0,00.0,30.4,23.0,02.6,0001.9,0010.00,0004.83,0004.14
2022-12-22 15:26:00,,0829.2,5.03,0.00,21.6,21.8,00.0,30.4,23.2,02.6,0001.8,0009.93,0004.79,0004.13
2022-12-22 15:27:00,,0829.3,4.98,0.00,21.7,22.1,00.0,30.4,23.4,02.6,0001.6,0009.35,0004.76,0004.13
2022-12-22 15:28:00,,0829.3,5.03,0.00,21.6,21.2,00.0,30.4,23.1,02.7,0001.5,0009.48,0004.74,0004.13
2022-12-22 15:29:00,,0829.3,4.99,0.00,21.5,20.1,00.0,30.5,22.7,02.7,0001.5,0009.93,0004.74,0004.13
2022-12-22 15:30:00,,0829.3,4.96,0.00,21.3,19.5,00.0,30.4,22.5,02.7,0001.2,0009.27,0004.73,0004.13
2022-12-22 15:31:00,,0829.2,5.02,0.00,21.4,20.3,00.0,30.3,22.7,02.7,0001.1,0009.23,0004.71,0004.12
2022-12-22 15:32:00,,0829.4,5.02,0.00,21.5,21.3,00.0,30.3,23.0,02.7,0000.4,0009.17,0004.66,0004.09
2022-12-22 15:33:00,,0829.4,4.98,0.00,21.6,22.1,00.0,30.3,23.3,02.7,0000.2,0009.21,0004.62,0004.05
2022-12-22 15:34:00,,0829.4,5.01,0.00,21.6,21.6,00.0,30.4,23.2,02.7,0000.1,0009.17,0004.60,0004.02
2022-12-22 15:35:00,,0829.4,4.98,0.00,21.5,20.6,00.0,30.4,22.9,02.7,0000.4,0009.08,0004.56,0004.01
2022-12-22 15:36:00,,0829.4,5.02,0.00,21.4,19.7,00.0,30.4,22.6,02.7,0000.4,0008.99,0004.53,0003.99
2022-12-22 15:37:00,,0829.3,5.01,0.00,21.3,19.9,00.0,30.3,22.6,02.8,0000.6,0008.99,0004.54,0003.98
2022-12-22 15:38:00,,0829.4,4.95,0.00,21.4,20.9,00.0,30.3,22.9,02.8,0001.2,0009.18,0004.54,0003.96
2022-12-22 15:39:00,,0829.5,5.05,0.00,21.5,21.7,00.0,30.2,23.1,02.8,0001.2,0009.50,0004.54,0003.95
2022-12-22 15:40:00,,0829.5,4.97,0.00,21.6,22.2,00.0,30.3,23.3,02.8,0001.5,0008.90,0004.49,0003.93
2022-12-22 15:41:00,,0829.5,5.04,0.00,21.6,21.4,00.0,30.3,23.2,02.8,0001.6,0008.90,0004.49,0003.91
2022-12-22 15:42:00,,0829.5,4.95,0.00,21.5,20.4,00.0,30.3,22.8,02.8,0001.3,0008.96,0004.50,0003.91
2022-12-22 15:43:00,,0829.6,5.03,0.00,21.4,19.5,00.0,30.3,22.5,02.8,0001.5,0008.94,0004.51,0003.91
2022-12-22 15:44:00,,0829.6,5.01,0.00,21.3,19.9,00.0,30.3,22.6,02.9,0001.0,0009.01,0004.50,0003.91
2022-12-22 15:45:00,,0829.5,4.96,0.00,21.4,21.1,00.0,30.2,22.9,02.9,0001.0,0009.13,0004.52,0003.92
2022-12-22 15:46:00,,0829.5,5.02,0.00,21.5,22.2,00.0,30.2,23.2,02.9,0001.1,0009.17,0004.55,0003.95
2022-12-22 15:47:00,,0829.7,4.97,0.00,21.6,22.1,00.0,30.3,23.2,02.9,0000.9,0009.17,0004.58,0003.97
2022-12-22 15:48:00,,0829.7,5.04,0.00,21.5,21.0,00.0,30.3,22.9,02.9,0000.8,0009.16,0004.59,0003.98
2022-12-22 15:49:00,,0829.7,4.95,0.00,21.4,20.2,00.0,30.3,22.7,02.8,0000.3,0009.16,0004.64,0004.00
2022-12-22 15:50:00,,0829.7,5.04,0.00,21.3,20.0,00.0,30.3,22.7,02.8,0000.6,0008.70,0004.64,0004.02
2022-12-22 15:51:00,,0829.8,4.97,0.00,21.4,21.2,00.0,30.2,23.0,02.8,0000.4,0008.90,0004.66,0004.03
2022-12-22 15:52:00,,0829.8,5.01,0.00,21.5,22.1,00.0,30.2,23.3,02.8,0000.6,0008.92,0004.69,0004.06
2022-12-22 15:53:00,,0829.9,4.98,0.00,21.6,22.0,00.0,30.3,23.3,02.8,0001.2,0009.42,0004.78,0004.15
2022-12-22 15:54:00,,0829.8,5.03,0.00,21.6,21.1,00.0,30.3,23.1,02.7,0001.7,0009.88,0004.92,0004.27
2022-12-22 15:55:00,,0829.8,4.97,0.00,21.5,20.4,00.0,30.3,22.9,02.8,0002.1,0010.01,0005.07,0004.40
2022-12-22 15:56:00,,0829.9,5.04,0.00,21.4,19.8,00.0,30.3,22.7,02.8,0002.2,0010.55,0005.19,0004.52
2022-12-22 15:57:00,,0829.9,4.96,0.00,21.4,20.6,00.0,30.3,22.9,02.8,0001.9,0010.59,0005.28,0004.61
2022-12-22 15:58:00,,0829.9,5.05,0.00,21.5,21.7,00.0,30.3,23.2,02.7,0002.0,0010.67,0005.35,0004.69
2022-12-22 15:59:00,,0829.8,4.96,0.00,21.6,22.2,00.0,30.3,23.4,02.7,0001.7,0010.85,0005.46,0004.78
